Portada
METAR-TAF:

METAR-TAF

Aeroports :

Elkhart Municipal Airport

Elkhart, Indiana, Estats Units d'Amèrica

latitud: 41-43N, longitud: 086-00W, altitud: 237 m

Observació

L'informe es va fer fa 17 minuts, a les 12:55 UTC
Vent 6 kt del Oest
Temperatura 1°C
Humitat 86%
Pressió 1023 hPa
Visibilitat: 16.1 km
Cel clar

METAR: KEKM 161255Z 26006KT 10SM CLR 01/M01 A3022 RMK AO2

Hora: 09:12 (13:12 UTC)


TAF: manca

Observacions i pronòstics meteorològics de més de 4000 aeroports (METAR i TAF).

Les estacions disponibles són els punts grocs i vermells al mapa.

Posi el ratolí al punt desitjat per veure el nom de l'estació.

Feu clic per veure les observacions i els pronòstics meteorològics.

Per canviar el mapa: feu clic els botons verds amb una creu de color negre per apropar; al botó verd amb un guió per allunyar la imatge; o en les fletxes verdes per a mapes adjacents.


METAR-TAF: